Temperature
12 12 12 12 12 12 12 12 12 12 12 12 12 11 11 11 11 11 11 11 10 10 10 10 10 10 10 10 10 10 10 10 10 10 10 10 10 10 10 11 11 11 11
12 12 12 12 12 12 12 12 12 12 12 11 11 11 11 11 11 11 10 10 10 10 10 10 10 10 10 10 10 10 10 10 9 10 10 10 10 10 10 10 10 10 10
12 12 12 12 12 12 12 11 12 12 11 11 11 11 11 11 11 10 10 10 10 10 10 10 10 10 10 10 10 9 9 9 9 9 9 10 10 10 10 10 10 10 10
12 12 12 12 12 11 11 11 11 11 11 11 11 11 11 11 11 10 10 10 10 10 10 10 10 10 10 9 9 9 9 9 9 9 9 9 9 9 9 9 10 10 10
12 12 12 12 11 11 11 11 11 11 11 11 11 11 11 11 10 10 10 10 10 10 10 10 10 10 9 9 9 9 9 9 9 9 9 9 9 9 9 9 9 9 9
11 11 11 11 11 11 11 11 11 11 11 11 11 11 11 11 10 10 10 10 10 10 10 10 10 10 9 9 9 9 9 9 9 9 9 9 9 9 9 9 9 9 9
11 11 11 11 11 11 11 11 11 11 11 11 11 11 11 11 10 10 10 10 10 10 10 9 9 9 9 9 9 9 9 9 9 9 9 9 9 9 9 9 9 9 9
11 11 11 11 11 11 11 11 11 11 11 11 11 11 11 11 11 10 10 10 10 10 10 9 9 9 9 9 9 9 9 9 9 8 8 9 9 9 9 9 9 8 9
11 11 11 11 11 11 11 11 11 11 11 11 11 11 11 11 11 10 10 10 10 10 9 9 9 9 9 9 9 9 9 9 9 8 8 8 8 8 8 8 8 8 8
11 11 11 11 11 11 11 11 11 11 11 11 11 11 11 11 10 10 10 10 10 10 10 9 9 9 9 9 9 8 9 9 9 9 8 8 8 8 8 8 8 8 8
11 11 11 11 11 11 11 11 11 11 11 11 11 11 11 11 10 10 10 10 10 10 9 9 9 9 9 8 8 8 8 8 8 8 8 8 8 8 8 8 8 8 8
11 11 11 12 11 11 11 11 11 11 11 11 11 11 11 10 10 10 10 10 9 9 9 9 9 9 8 8 8 8 8 8 8 8 8 8 8 8 8 8 8 8 8
11 11 12 12 11 11 11 11 11 11 11 11 11 11 11 10 10 10 10 10 9 9 9 9 9 8 8 8 8 8 8 8 7 7 7 7 7 7 7 7 8 8 8
11 11 12 11 11 11 11 11 11 11 11 11 11 11 10 10 10 10 10 10 9 9 9 9 8 8 8 8 8 8 7 7 7 7 7 7 7 7 7 7 7 7 7
11 11 11 11 11 12 11 11 11 11 11 11 11 11 10 10 10 10 9 9 9 9 9 9 8 8 8 8 8 7 7 7 7 7 7 7 7 7 7 7 7 7 7
11 11 11 12 12 11 11 11 11 11 11 11 11 10 10 10 10 9 9 9 9 9 8 8 8 8 8 8 7 7 7 7 6 6 6 6 6 6 6 6 6 6 6
12 12 12 12 12 11 11 11 11 11 11 11 11 10 10 10 10 9 9 9 9 9 8 8 8 8 7 7 7 7 7 6 6 6 6 6 6 6 6 6 6 6 6
12 12 12 12 12 11 11 11 11 11 11 11 10 10 10 10 9 9 9 9 9 8 8 8 8 7 7 7 7 7 6 6 6 6 6 6 5 5 5 5 5 5 5
12 12 12 12 12 11 11 11 11 11 11 10 10 10 10 9 9 9 9 8 8 8 8 7 7 7 7 7 7 6 6 6 6 5 5 5 5 5 5 5 5 5 5
12 12 12 12 12 12 11 11 11 11 11 10 10 10 9 9 9 9 8 8 8 8 7 7 7 7 7 7 6 6 6 6 5 5 5 5 5 5 5 5 4 4 4
12 12 12 12 12 11 11 11 11 11 10 10 10 9 9 9 9 9 8 8 8 7 7 7 7 7 6 6 6 6 6 5 5 5 5 5 4 4 4 4 4 4 4
12 12 12 12 12 11 11 11 11 11 10 10 10 9 9 9 9 8 8 8 7 7 7 7 6 6 6 6 6 5 5 5 5 5 4 4 4 4 4 4 4 4 4
12 12 12 12 11 11 11 11 11 10 10 10 10 9 9 9 9 8 8 8 7 7 7 7 6 6 6 6 6 5 5 5 4 4 4 4 4 4 4 4 4 4 3
12 12 12 12 11 11 11 11 11 10 10 10 10 9 9 9 9 8 8 8 7 7 7 7 6 6 6 6 5 5 5 5 4 4 4 4 4 4 4 3 3 3 3
12 12 12 11 11 11 11 11 11 10 10 10 10 9 9 9 9 8 8 8 7 7 7 7 6 6 6 5 5 5 5 4 4 4 4 4 4 3 3 3 3 3 3
12 12 11 11 11 11 11 11 11 10 10 10 10 9 9 9 9 8 8 8 7 7 7 6 6 6 6 5 5 5 4 4 4 4 3 3 3 3 3 3 3 3 3
Wind_Speed
3 3 2 3 3 3 2 3 3 3 3 2 2 2 2 2 2 2 2 2 2 3 3 2 3 3 3 3 2 2 3 3 5 5 3 4 4 5 5 5 6 6 6
3 3 2 3 3 3 3 3 3 3 2 2 2 2 2 2 2 2 3 3 3 3 4 3 4 3 3 3 2 3 3 4 4 6 4 4 4 5 5 5 5 5 5
3 3 3 3 3 4 4 3 3 2 2 2 1 2 2 2 2 3 3 3 3 3 3 3 4 3 3 3 3 3 3 3 4 4 5 4 3 3 4 4 5 4 5
3 3 3 3 3 4 4 3 3 2 2 2 2 2 2 2 2 3 3 3 3 3 3 3 4 4 4 4 3 4 4 4 4 4 5 4 4 3 3 4 4 4 4
3 3 4 4 3 3 3 3 3 2 2 2 2 3 3 2 3 3 3 3 3 3 4 4 4 4 5 4 4 4 4 3 4 4 5 4 4 3 4 3 4 5 4
3 4 4 4 3 3 3 3 2 2 2 2 2 3 4 4 5 4 3 2 2 3 4 5 5 5 5 6 6 6 5 4 5 4 5 6 6 6 5 4 4 3 4
4 4 4 3 3 4 3 3 2 3 2 3 3 3 4 5 6 6 4 2 2 3 4 4 5 5 5 5 6 7 6 6 6 6 7 7 7 6 5 6 5 5 5
4 4 3 3 3 3 3 3 3 2 3 3 3 4 4 5 6 6 5 2 3 4 4 4 5 6 6 5 6 6 7 6 6 6 7 8 7 6 6 6 6 5 5
3 4 3 3 3 3 3 3 3 2 3 3 3 4 4 6 7 6 4 2 3 4 4 4 4 5 7 6 5 6 7 7 6 6 7 7 8 7 5 3 3 3 4
4 4 3 3 3 3 3 3 2 2 3 3 4 3 4 5 6 6 4 1 3 4 4 4 5 5 7 7 4 5 6 7 7 7 6 6 5 5 4 4 4 4 3
4 3 3 3 3 3 3 2 2 2 2 3 4 4 4 4 6 6 4 1 2 4 4 5 5 8 8 8 6 4 6 7 6 6 5 5 4 3 3 3 4 4 4
3 3 4 4 3 2 2 2 2 2 3 4 4 5 5 4 5 5 5 4 3 2 4 4 5 9 9 9 6 5 6 6 4 4 4 4 4 4 4 4 4 5 6
3 4 4 3 3 2 1 2 2 2 2 3 3 4 5 5 5 6 5 5 5 2 4 6 8 9 8 6 6 7 5 3 3 3 4 4 4 5 4 4 4 4 4
3 4 3 2 3 3 2 1 1 2 2 3 3 4 5 5 5 5 4 4 5 4 4 6 7 7 5 5 5 5 4 3 2 3 4 4 4 4 4 4 3 4 3
2 3 3 2 2 2 3 2 2 2 2 2 2 2 3 4 6 6 4 4 4 4 4 3 4 5 6 5 5 5 4 4 4 3 4 4 5 5 4 4 3 3 3
2 3 2 2 1 2 2 3 4 2 3 3 2 2 2 3 6 6 6 6 6 5 3 3 4 5 6 6 6 5 5 5 4 4 4 5 5 5 5 4 4 3 4
2 2 2 1 1 1 2 2 3 5 5 5 5 4 3 4 6 6 6 5 5 4 2 4 4 5 5 5 5 5 5 5 5 4 5 5 5 5 5 5 5 5 5
2 2 1 1 1 1 1 1 1 2 4 4 5 5 5 5 6 7 6 5 4 4 3 4 5 5 4 5 5 5 5 5 5 5 5 5 5 5 5 5 5 5 5
1 1 1 1 1 1 1 1 1 2 2 3 4 5 6 6 6 7 5 4 4 4 4 4 4 5 5 4 4 5 5 5 5 5 5 5 5 5 5 5 5 6 5
1 1 1 0 1 1 2 1 2 2 2 2 3 4 4 4 4 5 4 4 4 4 5 5 5 5 4 4 4 4 4 5 6 5 5 5 5 5 5 5 5 5 5
1 1 1 1 1 2 2 2 2 2 2 2 3 3 3 2 3 4 4 4 4 4 4 5 5 5 4 4 4 4 5 5 5 6 6 6 6 5 5 5 5 5 5
1 0 0 1 1 2 2 1 1 1 1 2 2 3 3 2 3 3 4 4 4 3 3 3 4 4 4 5 4 4 4 5 6 6 6 6 5 5 5 5 5 5 5
1 0 1 1 1 1 2 1 1 1 1 2 2 2 3 2 3 3 4 4 3 4 4 4 4 5 5 4 4 4 4 5 5 6 6 6 6 5 5 5 6 6 6
1 1 1 1 1 1 1 1 1 1 1 1 2 2 2 2 2 3 3 3 3 4 4 4 4 6 7 6 5 5 5 6 6 5 5 5 5 5 5 5 5 6 6
1 1 1 1 1 1 1 1 1 1 1 2 2 2 3 3 2 3 3 3 3 4 5 5 5 5 7 7 7 7 8 8 7 6 5 4 5 5 5 5 5 6 6
2 2 1 1 1 1 1 1 1 2 2 2 2 2 2 2 3 3 3 3 3 3 4 4 6 6 7 7 8 9 9 8 8 8 5 4 5 5 5 5 6 5 6
Wind_Direction
296 285 292 296 296 296 292 286 285 288 292 288 277 276 287 289 281 274 278 276 275 285 291 283 285 279 279 279 266 253 247 239 260 276 263 274 275 281 291 284 278 272 276
296 290 290 299 314 317 311 309 310 310 306 297 280 283 289 286 279 272 280 281 277 287 295 295 293 296 289 284 276 267 258 241 243 271 278 276 265 279 288 289 288 285 279
304 296 295 303 315 306 300 303 307 310 316 319 316 295 296 296 294 293 282 286 286 283 293 293 292 296 294 291 284 279 272 264 246 256 274 273 273 282 295 296 293 288 289
310 298 292 292 291 288 295 306 311 312 306 303 303 297 287 289 293 296 291 287 291 295 296 295 294 281 271 277 281 278 273 271 267 267 275 276 271 278 278 283 297 300 298
322 313 295 290 294 306 309 313 316 318 305 298 316 317 308 296 287 291 289 286 292 305 313 312 304 296 283 271 273 275 276 272 275 276 277 276 278 279 274 264 274 290 291
318 307 307 312 315 315 311 315 331 331 321 327 330 323 318 310 305 303 294 292 301 303 311 315 311 306 302 297 291 284 273 264 267 267 272 274 274 271 268 266 268 281 287
314 308 308 314 316 309 313 326 323 317 320 320 315 320 315 313 321 322 319 300 296 295 296 302 307 312 316 309 302 300 291 277 257 253 262 266 269 263 264 269 262 258 265
315 315 316 317 320 324 327 323 318 314 317 312 310 315 317 318 327 328 324 317 307 302 298 295 299 308 310 311 309 309 303 294 281 268 261 265 267 266 255 255 261 265 269
314 317 318 319 321 328 328 315 310 315 323 320 316 322 324 319 328 331 335 327 314 313 315 315 306 305 308 318 315 310 312 311 300 289 277 274 273 271 258 250 255 256 276
304 303 302 305 305 299 297 302 302 307 310 322 324 322 316 313 323 330 335 318 315 317 324 324 318 315 317 323 315 309 310 311 319 322 316 308 294 287 261 233 236 245 267
304 316 317 313 305 296 303 313 317 323 338 340 333 328 328 324 329 337 343 341 308 316 322 325 326 327 323 322 316 295 289 300 307 311 314 316 314 310 300 272 243 236 249
323 326 318 319 318 330 340 338 344 354 355 348 348 342 338 338 337 334 340 336 316 311 312 318 321 326 327 327 325 318 317 322 319 323 324 323 320 313 306 297 276 257 250
340 330 325 334 340 353 9 358 0 11 4 346 345 337 331 336 336 338 342 345 345 328 314 317 321 325 329 333 340 344 346 344 336 333 325 316 306 298 303 308 305 294 282
332 328 332 345 350 357 4 358 352 347 345 333 331 328 329 336 337 339 341 344 345 341 331 329 332 337 343 337 341 351 354 346 333 318 317 315 320 324 325 324 319 321 312
325 329 337 346 353 354 351 331 310 288 261 273 297 303 320 328 321 320 321 328 332 327 332 345 355 352 353 352 350 349 351 352 346 334 327 324 324 326 324 325 319 319 310
322 325 326 333 344 347 351 354 1 343 343 346 306 280 299 299 320 339 339 333 335 346 9 353 344 343 345 344 344 345 347 344 336 331 328 322 320 320 321 328 333 326 316
279 292 307 317 327 335 342 349 337 344 355 5 3 358 343 342 348 349 347 346 352 15 16 342 334 333 336 338 342 341 336 335 333 332 329 329 331 331 330 331 334 334 328
284 282 284 298 304 309 315 314 308 319 335 343 352 1 1 356 354 352 354 8 8 12 351 338 334 332 335 339 339 338 336 339 345 344 341 341 339 335 332 332 335 334 328
291 279 281 304 304 302 309 312 312 320 325 330 340 349 355 355 359 1 12 16 357 348 345 344 341 338 336 336 338 340 341 343 346 345 344 340 336 332 328 332 333 330 330
284 262 266 312 323 325 324 323 324 328 326 331 333 334 344 1 4 358 2 355 351 345 344 342 341 339 336 336 338 343 346 346 345 344 338 334 332 330 327 327 328 330 330
270 295 319 340 324 319 321 317 315 313 314 323 324 330 343 347 342 340 341 344 343 341 341 341 341 341 337 333 337 344 347 343 340 335 331 329 330 330 328 327 328 328 327
223 260 320 316 319 326 323 320 320 322 328 331 330 338 343 344 336 333 332 333 336 338 338 338 337 337 335 336 337 338 338 335 333 330 326 324 326 327 329 331 333 335 333
192 220 302 313 317 325 339 351 6 10 349 335 327 329 332 330 324 324 326 331 337 341 346 347 342 341 341 340 338 334 329 324 320 318 320 323 327 329 329 332 333 334 336
208 235 273 301 322 343 348 342 339 329 321 318 316 316 316 316 320 324 328 334 338 341 346 347 344 343 344 346 345 344 337 329 325 317 315 314 320 324 327 332 331 331 332
213 234 245 255 278 283 289 296 292 289 299 305 306 313 322 326 325 324 331 338 339 341 344 345 345 347 348 350 352 349 342 339 339 335 324 318 324 329 331 330 330 330 334
215 224 235 244 244 241 236 245 262 277 284 291 301 312 317 317 319 325 332 337 336 336 338 342 349 354 353 354 353 351 349 350 349 344 337 331 335 339 340 336 336 337 338
Height
1481 1480 1479 1478 1478 1477 1475 1474 1473 1471 1470 1469 1468 1467 1466 1465 1464 1463 1461 1460 1460 1459 1458 1456 1455 1454 1453 1453 1452 1451 1450 1449 1447 1446 1446 1445 1444 1443 1442 1441 1440 1439 1439
1479 1478 1478 1477 1477 1476 1474 1472 1471 1470 1468 1467 1466 1465 1464 1463 1462 1460 1459 1458 1457 1456 1455 1454 1452 1451 1451 1450 1449 1448 1447 1446 1444 1442 1441 1441 1440 1439 1438 1437 1436 1435 1434
1478 1477 1476 1475 1474 1474 1472 1471 1470 1468 1467 1466 1465 1463 1462 1461 1460 1459 1457 1456 1455 1453 1452 1451 1450 1449 1448 1447 1446 1444 1443 1442 1441 1440 1438 1437 1436 1435 1434 1433 1432 1431 1430
1476 1475 1474 1473 1472 1472 1471 1470 1468 1467 1466 1465 1464 1462 1461 1460 1458 1457 1455 1454 1453 1451 1450 1449 1448 1447 1446 1444 1443 1442 1440 1439 1438 1436 1434 1433 1432 1431 1430 1429 1427 1427 1426
1475 1473 1473 1472 1471 1470 1469 1468 1467 1466 1465 1464 1463 1461 1460 1458 1457 1455 1454 1452 1451 1449 1448 1447 1446 1445 1443 1442 1440 1439 1437 1435 1434 1432 1430 1429 1428 1427 1426 1425 1423 1422 1421
1474 1473 1472 1471 1470 1469 1468 1467 1466 1465 1465 1463 1462 1460 1459 1457 1455 1454 1453 1451 1449 1448 1446 1445 1444 1443 1441 1440 1438 1436 1434 1432 1430 1429 1427 1425 1424 1423 1422 1421 1420 1418 1417
1473 1472 1471 1470 1469 1468 1467 1466 1465 1465 1464 1462 1461 1459 1458 1456 1455 1453 1452 1450 1448 1446 1445 1443 1442 1440 1438 1437 1435 1433 1432 1430 1428 1426 1423 1422 1420 1419 1418 1417 1416 1415 1414
1472 1471 1470 1469 1468 1467 1466 1466 1465 1464 1463 1461 1460 1459 1457 1455 1454 1452 1451 1449 1447 1445 1443 1441 1440 1438 1436 1434 1432 1430 1428 1426 1424 1422 1420 1419 1417 1416 1415 1414 1412 1411 1410
1472 1470 1470 1469 1468 1467 1466 1466 1465 1464 1462 1461 1459 1458 1456 1455 1453 1451 1449 1447 1446 1444 1442 1440 1438 1436 1433 1431 1429 1426 1424 1423 1421 1419 1417 1415 1414 1413 1411 1410 1409 1408 1406
1472 1471 1470 1469 1468 1467 1467 1466 1465 1464 1462 1461 1459 1458 1456 1454 1452 1450 1448 1446 1444 1442 1440 1438 1436 1433 1431 1429 1426 1424 1421 1419 1417 1415 1414 1412 1411 1410 1409 1407 1406 1405 1403
1472 1471 1470 1469 1468 1468 1467 1466 1465 1463 1462 1461 1459 1457 1455 1453 1451 1449 1447 1445 1443 1440 1438 1436 1434 1431 1429 1426 1424 1421 1419 1417 1415 1413 1411 1409 1408 1407 1405 1404 1403 1401 1400
1472 1471 1470 1469 1469 1468 1467 1466 1465 1463 1462 1460 1458 1456 1455 1453 1451 1448 1446 1444 1442 1439 1437 1434 1432 1430 1427 1424 1421 1419 1417 1415 1412 1410 1408 1406 1405 1404 1402 1401 1400 1398 1397
1472 1471 1470 1470 1469 1468 1467 1466 1465 1463 1462 1460 1458 1456 1454 1452 1450 1448 1445 1443 1441 1438 1436 1433 1430 1428 1425 1423 1420 1417 1415 1413 1410 1408 1406 1404 1403 1401 1399 1398 1396 1395 1393
1472 1471 1470 1470 1469 1468 1467 1466 1465 1463 1462 1460 1458 1456 1454 1452 1449 1447 1445 1442 1440 1437 1435 1432 1429 1427 1424 1422 1419 1416 1414 1411 1409 1407 1404 1402 1400 1399 1397 1395 1393 1391 1389
1472 1471 1471 1470 1469 1468 1467 1466 1465 1463 1462 1460 1458 1456 1454 1451 1449 1447 1445 1442 1439 1437 1434 1431 1428 1425 1423 1420 1418 1415 1413 1410 1408 1405 1403 1400 1398 1396 1394 1392 1390 1388 1386
1472 1471 1471 1470 1469 1468 1467 1466 1465 1464 1462 1460 1458 1456 1454 1452 1449 1447 1444 1442 1439 1436 1433 1430 1427 1425 1422 1419 1416 1414 1411 1409 1406 1404 1401 1399 1396 1394 1392 1390 1388 1386 1384
1472 1471 1471 1470 1469 1468 1467 1465 1464 1463 1462 1460 1458 1456 1454 1451 1449 1446 1444 1441 1439 1436 1432 1430 1427 1424 1422 1419 1416 1413 1411 1408 1405 1403 1400 1397 1395 1392 1390 1388 1386 1384 1382
1471 1471 1470 1469 1468 1467 1466 1465 1464 1462 1460 1459 1457 1455 1453 1451 1448 1446 1443 1440 1438 1435 1432 1430 1427 1424 1421 1419 1416 1413 1410 1407 1405 1402 1399 1396 1394 1391 1389 1387 1385 1382 1380
1471 1470 1470 1469 1468 1467 1466 1465 1463 1462 1460 1458 1456 1455 1453 1451 1448 1445 1442 1440 1437 1434 1432 1430 1427 1424 1421 1418 1415 1413 1410 1407 1404 1401 1398 1396 1393 1390 1388 1386 1383 1381 1379
1471 1470 1470 1469 1468 1467 1465 1464 1463 1461 1459 1458 1456 1454 1452 1450 1447 1444 1442 1439 1437 1434 1432 1429 1427 1424 1420 1417 1414 1412 1409 1406 1403 1401 1398 1395 1392 1389 1387 1384 1382 1380 1377
1471 1470 1469 1468 1467 1466 1465 1463 1462 1460 1458 1457 1455 1453 1451 1449 1447 1444 1442 1439 1437 1434 1432 1429 1426 1423 1420 1417 1414 1411 1408 1405 1402 1399 1397 1394 1391 1388 1386 1383 1381 1378 1376
1470 1469 1469 1468 1466 1465 1464 1462 1461 1459 1457 1456 1454 1453 1451 1449 1446 1444 1442 1439 1437 1434 1431 1428 1425 1422 1419 1416 1413 1410 1407 1404 1401 1398 1395 1392 1390 1387 1384 1382 1379 1377 1374
1469 1468 1468 1467 1466 1464 1463 1461 1460 1458 1457 1456 1454 1452 1450 1448 1445 1443 1441 1439 1436 1433 1431 1428 1425 1422 1419 1415 1412 1409 1406 1403 1400 1397 1394 1391 1388 1386 1383 1381 1378 1376 1373
1468 1468 1467 1466 1465 1464 1462 1460 1459 1458 1457 1455 1453 1451 1449 1447 1445 1442 1440 1438 1435 1432 1430 1427 1424 1421 1418 1414 1411 1408 1405 1402 1399 1396 1393 1390 1387 1384 1382 1379 1377 1375 1373
1467 1466 1466 1465 1464 1462 1461 1459 1458 1457 1456 1454 1452 1450 1448 1446 1444 1441 1439 1437 1434 1431 1429 1426 1423 1420 1417 1413 1410 1407 1404 1401 1398 1395 1392 1389 1386 1383 1381 1379 1376 1374 1372
1465 1465 1464 1463 1462 1461 1460 1458 1457 1456 1454 1453 1451 1449 1447 1445 1443 1440 1438 1436 1433 1430 1427 1425 1422 1419 1416 1412 1409 1406 1403 1400 1397 1394 1391 1388 1385 1382 1380 1378 1376 1373 1371